Content
SEND FEEDBACK

Daily
Averages
Monthly
Summary
United States of America

POTTS JUNCTION, GUAM


Home > North America > United States > Guam
Elevation: 110 meters     Latitude: 13 33N     Longitude: 144 50E

WEATHER
 
SELECT A DAY
Number of Records: 213,057;   Date Range: 1/1/95 - 9/29/14
 
SHARE

PRINT THIS DATA

[ ← Previous Day ]
WEATHER ALMANAC - 4 APRIL, 2013
[ Next Day → ]
[ °F ]   °C
Weather ElementAverageHighLow
Temperature28.5 °C31.1 °C (1:54 pm)25 °C (5:54 am)
Dewpoint22.8 °C24 °C (2:38 am)22 °C (1:13 pm)
Humidity71.8 %88 % (3:54 am)58 % (1:13 pm)
Barometer1010.8 hPa1012.2 hPa (9:54 am)1009.1 hPa (4:54 pm)
Wind Speed12.4 km/h22.2 km/h (1:54 pm)
Wind Gust37 km/h (3:54 pm)
Weather ElementAverage
Visibility16.1 km
Wind DirectionE (84.6 °)

Weather ElementTotal
Precipitation---
Cooling Degree Days9.7 (Base 18.3)
Growing Degree Days18.1 (Base 10)
Averaged from 26 records on 4 April, 2013
WEATHER CONDITIONS BREAKOUT
WIND DIRECTION BREAKOUT
WEATHER BY HOUR - 4 APRIL, 2013
[ °F ]   °C
Local TimeTemperatureDewpointHumidityBarometerVisibilityWind DirectionWind SpeedGust SpeedPrecipitationEventsConditions
1:54 AM26.7 °C23.9 °C85 %1010.8 hPa16.1 kmNE (40°)7.4 km/h0 mmMostly Cloudy
2:38 AM27 °C24 °C84 %1011.5 hPa16.1 kmNE (40°)5.6 km/hOvercast
2:54 AM26.7 °C23.3 °C81 %1010.5 hPa16.1 kmCalmOvercast
3:54 AM26.1 °C23.9 °C88 %1010.5 hPa16.1 kmNNE (30°)7.4 km/h0 mmMostly Cloudy
4:54 AM26.1 °C23.3 °C84 %1010.5 hPa16.1 kmCalmScattered Clouds
5:54 AM25 °C22.8 °C88 %1010.8 hPa16.1 kmCalmClear
6:54 AM26.7 °C23.9 °C85 %1011.5 hPa16.1 kmEast (80°)5.6 km/hPartly Cloudy
7:54 AM27.8 °C22.8 °C74 %1011.9 hPa16.1 kmESE (110°)7.4 km/hScattered Clouds
8:54 AM28.9 °C22.8 °C69 %1011.9 hPa16.1 kmESE (110°)14.8 km/hPartly Cloudy
9:54 AM30 °C22.2 °C63 %1012.2 hPa16.1 kmEast (90°)16.7 km/h27.8 km/hScattered Clouds
10:54 AM30 °C22.8 °C65 %1011.9 hPa16.1 kmSE (130°)18.5 km/hScattered Clouds
11:54 AM30.6 °C22.2 °C61 %1011.2 hPa16.1 kmESE (120°)18.5 km/h33.3 km/hScattered Clouds
12:36 PM30 °C23 °C66 %1011.5 hPa16.1 kmESE (120°)16.7 km/h27.8 km/hMostly Cloudy
12:54 PM30 °C23.3 °C67 %1010.5 hPa16.1 kmESE (120°)16.7 km/h31.5 km/hMostly Cloudy
1:13 PM31 °C22 °C58 %1011.2 hPa16.1 kmESE (110°)13 km/h33.3 km/hMostly Cloudy
1:54 PM31.1 °C22.8 °C61 %1009.8 hPa16.1 kmEast (90°)22.2 km/h33.3 km/hMostly Cloudy
2:54 PM30.6 °C22.8 °C63 %1009.5 hPa16.1 kmEast (100°)18.5 km/h31.5 km/hScattered Clouds
3:54 PM30.6 °C22.8 °C63 %1009.5 hPa16.1 kmEast (90°)22.2 km/h37 km/hPartly Cloudy
4:54 PM30.6 °C22.8 °C63 %1009.1 hPa16.1 kmEast (90°)22.2 km/h33.3 km/hPartly Cloudy
5:54 PM28.9 °C22.8 °C69 %1009.8 hPa16.1 kmEast (100°)16.7 km/hClear
6:54 PM28.3 °C22.2 °C69 %1010.2 hPa16.1 kmESE (110°)16.7 km/hClear
7:54 PM28.3 °C22.8 °C72 %1011.2 hPa16.1 kmEast (100°)13 km/hScattered Clouds
8:54 PM28.3 °C22.2 °C69 %1011.5 hPa16.1 kmEast (100°)14.8 km/hClear
9:54 PM27.8 °C22.2 °C71 %1011.9 hPa16.1 kmEast (100°)9.3 km/hPartly Cloudy
10:54 PM27.2 °C22.2 °C74 %1012.2 hPa16.1 kmESE (110°)9.3 km/hScattered Clouds
11:54 PM27.2 °C22.2 °C74 %1011.9 hPa16.1 kmESE (110°)7.4 km/hMostly Cloudy
Hourly data recorded from PGUM, located 0 kilometers away from Potts Junction, Guam







STORIES FROM OUR PARTNERS